TimeCDT,TemperatureF,Dew PointF,Humidity,Sea Level PressureIn,VisibilityMPH,Wind Direction,Wind SpeedMPH,Gust SpeedMPH,PrecipitationIn,Events,Conditions,WindDirDegrees,DateUTC
12:51 AM,82.0,66.9,60,29.95,10.0,SW,3.5,-,N/A,,Clear,230,2013-09-10 05:51:00
1:51 AM,82.0,66.9,60,29.96,10.0,SW,5.8,-,N/A,,Partly Cloudy,230,2013-09-10 06:51:00
2:51 AM,82.0,66.9,60,29.96,10.0,SW,9.2,-,N/A,,Partly Cloudy,220,2013-09-10 07:51:00
3:51 AM,81.0,66.9,62,29.97,10.0,SW,8.1,-,N/A,,Clear,230,2013-09-10 08:51:00
4:51 AM,80.1,66.9,64,29.99,10.0,SW,6.9,-,N/A,,Clear,230,2013-09-10 09:51:00
5:51 AM,79.0,66.9,66,30.00,10.0,SW,4.6,-,N/A,,Clear,230,2013-09-10 10:51:00
6:51 AM,79.0,68.0,69,30.02,9.0,SW,3.5,-,N/A,,Partly Cloudy,230,2013-09-10 11:51:00
7:51 AM,81.0,68.0,65,30.04,9.0,SW,9.2,-,N/A,,Partly Cloudy,230,2013-09-10 12:51:00
8:51 AM,84.0,68.0,58,30.05,9.0,West,8.1,-,N/A,,Clear,260,2013-09-10 13:51:00
9:51 AM,86.0,68.0,55,30.06,10.0,WSW,10.4,-,N/A,,Clear,250,2013-09-10 14:51:00
10:51 AM,90.0,68.0,48,30.06,10.0,West,10.4,-,N/A,,Clear,260,2013-09-10 15:51:00
11:51 AM,93.0,66.9,42,30.06,10.0,West,6.9,-,N/A,,Partly Cloudy,260,2013-09-10 16:51:00
12:51 PM,96.1,64.0,35,30.05,10.0,West,12.7,17.3,N/A,,Scattered Clouds,270,2013-09-10 17:51:00
1:51 PM,97.0,64.9,35,30.03,10.0,West,10.4,-,N/A,,Scattered Clouds,270,2013-09-10 18:51:00
2:51 PM,98.1,63.0,31,30.01,10.0,West,6.9,-,N/A,,Partly Cloudy,260,2013-09-10 19:51:00
3:51 PM,97.0,60.1,29,30.00,10.0,West,11.5,-,N/A,,Partly Cloudy,270,2013-09-10 20:51:00
4:51 PM,97.0,59.0,28,29.98,10.0,West,10.4,-,N/A,,Partly Cloudy,260,2013-09-10 21:51:00
5:51 PM,96.1,57.9,28,29.99,10.0,West,10.4,-,N/A,,Partly Cloudy,260,2013-09-10 22:51:00
6:51 PM,93.0,59.0,32,30.01,10.0,WSW,4.6,-,N/A,,Partly Cloudy,250,2013-09-10 23:51:00
7:51 PM,90.0,61.0,38,30.02,10.0,SSW,4.6,-,N/A,,Partly Cloudy,210,2013-09-11 00:51:00
8:51 PM,88.0,61.0,40,30.04,10.0,SSW,3.5,-,N/A,,Clear,210,2013-09-11 01:51:00
9:51 PM,84.0,63.0,49,30.05,10.0,WSW,3.5,-,N/A,,Clear,240,2013-09-11 02:51:00
10:51 PM,84.0,62.1,47,30.05,10.0,SW,4.6,-,N/A,,Clear,220,2013-09-11 03:51:00
11:51 PM,82.9,61.0,47,30.05,10.0,Calm,Calm,-,N/A,,Clear,0,2013-09-11 04:51:00